Погода в Библе

Ливан     34°07′43″N   35°39′34″E
темп.,
°C
ветер,
м/с
пор.,
м/с
влажн.,
%
обл.,
%
осадки,
мм/ч
давл.,
гПа
погр.,
м
26 февраля, пт
пт2623:00+10всв12610 0.0 102222
02:00+9св12560 0.0 102122
05:00+8юв11550 0.0 102122
08:00+13ююз01420 0.0 1021103
11:00+15зсз21540 0.0 1021504
14:00+15сз21580 0.0 1019460
17:00+13ссв23700 0.0 1019125
20:00+11всв23730 0.0 101937
27 февраля, сб
сб2723:00+10св12690 0.0 102022
02:00+9св22720 0.0 101822
05:00+8св12730 0.0 101822
08:00+13св12550 0.0 1018106
11:00+16сз22540 0.0 1018393
14:00+15сз22580 0.0 1016411
17:00+13с22730 0.0 1015157
20:00+10ссв22760 0.0 101622
28 февраля, вс
вс2823:00+10св22720 0.0 101622
02:00+9св12740 0.0 101522
05:00+8всв22770 0.0 101422
08:00+12ссв11640 0.0 1015146
11:00+15зсз32610 0.0 1016603
14:00+14зюз33621 0.0 1014682
17:00+13юз23665 0.0 1015278
20:00+10ю23753 0.0 101629
1 марта, пн
пн123:00+9ю33750 0.0 101743
02:00+9ю34670 0.0 101751
05:00+9ююв34699 0.0 101650
08:00+12юз586819 0.1 1017599
11:00+13юз897093 0.1 1017930
14:00+14юз9117487 0.7 10161033
17:00+12ююз698278 1.4 1016650
20:00+10ю458352 1.8 1017126
2 марта, вт
вт223:00+9ю34710 0.2 101751
02:00+10ююз347116 0.3 101656
05:00+9ю23711 0.0 101623
08:00+13ююз58721 0.5 1017719
11:00+14юз1012720 0.4 10161003
14:00+14юз1214720 0.8 10151142
17:00+12ююз1215752 0.3 10151153
20:00+10ююз510704 0.6 1016283